Annette Island, AK

5:50 PM AKDT on May 24, 2017 (GMT -0800)
Annette Island

Weather History for PANT - January, 2013

Change the Weather History Date:

Tuesday, January 15, 2013

  Actual Average Record
Temperature  
Mean Temperature 43 °F 37 °F  
Max Temperature 45 °F 42 °F 60 °F (1981)
Min Temperature 41 °F 32 °F 7 °F (2005)
Degree Days  
Heating Degree Days 22 28  
Month to date heating degree days 392 420  
Since 1 July heating degree days 3435 3331  
Cooling Degree Days 0    
Month to date cooling degree days 0  
Year to date cooling degree days 0  
Moisture  
Dew Point 40 °F    
Average Humidity 0    
Maximum Humidity 0    
Minimum Humidity 0    
Precipitation  
Precipitation 0.09 in 0.36 in 3.64 in (1966)
Month to date precipitation 3.75 5.25  
Year to date precipitation 3.75 5.25  
Snow  
Snow 0.00 in 0.20 in 3.70 in (1951)
Month to date snowfall T 3.8  
Since 1 July snowfall 11.4 15.5  
Snow Depth 0.00 in    
Sea Level Pressure  
Sea Level Pressure 30.42 in    
Wind  
Wind Speed 7 mph (South)    
Max Wind Speed 14 mph    
Max Gust Speed 22 mph    
Visibility 8 miles    
Events Rain    
T = Trace of Precipitation, MM = Missing Value Source: NWS Daily Summary

Daily Weather History Graph

Daily Weather History Graph

Search for Another Location

Airport or City:

Trip Planner

Search our weather history database for the weather conditions in past years. The results will help you decide how hot, cold, wet, or windy it might be!

Date:

Astronomy

Jan. 15, 2013 Rise Set
Actual Time 8:01 AM AKST 3:50 PM AKST
Civil Twilight 7:18 AM AKST 4:33 PM AKST
Nautical Twilight 6:32 AM AKST 5:19 PM AKST
Astronomical Twilight 5:49 AM AKST 6:03 PM AKST
Moon 9:16 AM AKST (1/15) 9:47 PM AKST (1/15)
Length of Visible Light 9h 15m
Length of Day
7h 49m
Waxing Crescent, 20% of the Moon is Illuminated
Jan 15
Waxing Crescent
Jan 18
First Quarter
Jan 26
Full
Feb 3
Last Quarter
Feb 9
New

Hourly Weather History & Observations

Time (AKST) Temp. Windchill Dew Point Humidity Pressure Visibility Wind Dir Wind Speed Gust Speed Precip Events Conditions
12:53 AM 42.1 °F 37.1 °F 37.9 °F 85% 30.49 in 10.0 mi South 8.1 mph - N/A   Overcast
1:14 AM 42.8 °F 37.5 °F 37.4 °F 81% 30.49 in 10.0 mi South 9.2 mph 16.1 mph N/A   Overcast
1:53 AM 41.0 °F 36.4 °F 39.0 °F 93% 30.50 in 9.0 mi SSW 6.9 mph - 0.00 in   Overcast
3:53 AM 42.1 °F 39.2 °F 37.9 °F 85% 30.47 in 10.0 mi South 4.6 mph - N/A   Overcast
4:53 AM 41.0 °F 39.0 °F 37.0 °F 86% 30.46 in 10.0 mi SE 3.5 mph - N/A   Overcast
5:53 AM 41.0 °F 38.0 °F 37.0 °F 86% 30.46 in 10.0 mi South 4.6 mph - N/A   Overcast
6:53 AM 41.0 °F 37.1 °F 37.9 °F 89% 30.46 in 10.0 mi SE 5.8 mph - N/A   Overcast
7:53 AM 42.1 °F 38.4 °F 36.0 °F 79% 30.46 in 10.0 mi SSE 5.8 mph - N/A   Overcast
8:53 AM 42.1 °F 37.7 °F 36.0 °F 79% 30.45 in 10.0 mi South 6.9 mph - N/A   Overcast
9:31 AM 42.8 °F 37.5 °F 37.4 °F 81% 30.46 in 10.0 mi SE 9.2 mph - N/A   Overcast
9:53 AM 42.1 °F 37.1 °F 37.0 °F 82% 30.47 in 10.0 mi SE 8.1 mph - N/A   Overcast
10:53 AM 43.0 °F 37.7 °F 39.0 °F 86% 30.43 in 10.0 mi SSE 9.2 mph - N/A   Overcast
11:53 AM 43.0 °F 37.2 °F 39.0 °F 86% 30.42 in 10.0 mi SSE 10.4 mph 17.3 mph N/A   Overcast
12:00 PM 42.8 °F 37.5 °F 39.2 °F 87% 30.41 in 10.0 mi SSE 9.2 mph - N/A   Overcast
12:53 PM 43.0 °F 36.8 °F 39.0 °F 86% 30.39 in 10.0 mi SSE 11.5 mph 18.4 mph N/A   Overcast
1:35 PM 44.6 °F 40.7 °F 39.2 °F 81% 30.38 in 8.0 mi SSE 6.9 mph - N/A   Overcast
1:53 PM 44.1 °F 39.0 °F 39.9 °F 85% 30.40 in 7.0 mi South 9.2 mph 16.1 mph 0.00 in Rain Light Rain
2:08 PM 42.8 °F 38.0 °F 39.2 °F 87% 30.39 in 2.5 mi South 8.1 mph - 0.00 in Rain Light Rain
2:27 PM 42.8 °F 37.5 °F 41.0 °F 93% 30.38 in 3.0 mi SSE 9.2 mph 17.3 mph 0.01 in Rain Light Rain
2:53 PM 43.0 °F 38.2 °F 42.1 °F 97% 30.38 in 5.0 mi South 8.1 mph 18.4 mph 0.01 in   Overcast
3:53 PM 43.0 °F 39.5 °F 42.1 °F 97% 30.39 in 4.0 mi SSE 5.8 mph - 0.03 in Rain Light Rain
4:53 PM 44.1 °F 39.0 °F 42.1 °F 93% 30.39 in 5.0 mi South 9.2 mph 17.3 mph 0.01 in Rain Light Rain
5:36 PM 44.6 °F 38.1 °F 42.8 °F 93% 30.37 in 4.0 mi South 13.8 mph 19.6 mph 0.02 in Rain Light Rain
5:53 PM 44.1 °F 37.7 °F 42.1 °F 93% 30.38 in 4.0 mi South 12.7 mph 21.9 mph 0.02 in Rain Light Rain
6:53 PM 44.1 °F 39.5 °F 43.0 °F 96% 30.38 in 10.0 mi South 8.1 mph 17.3 mph 0.01 in   Overcast
7:03 PM 44.6 °F 40.7 °F 42.8 °F 93% 30.37 in 10.0 mi SSW 6.9 mph - N/A   Overcast
7:49 PM 44.6 °F 40.2 °F 42.8 °F 93% 30.38 in 10.0 mi South 8.1 mph - N/A   Overcast
7:53 PM 45.0 °F 41.2 °F 42.1 °F 90% 30.38 in 10.0 mi South 6.9 mph - N/A   Overcast
8:53 PM 44.1 °F 39.0 °F 42.1 °F 93% 30.39 in 10.0 mi SSW 9.2 mph - N/A   Overcast
9:53 PM 44.1 °F 41.5 °F 41.0 °F 89% 30.40 in 10.0 mi SSW 4.6 mph - N/A   Overcast
10:53 PM 43.0 °F - 41.0 °F 93% 30.42 in 10.0 mi Calm Calm - N/A   Overcast
11:36 PM 42.8 °F - 41.0 °F 93% 30.43 in 10.0 mi Calm Calm - N/A   Overcast
11:53 PM 43.0 °F - 39.9 °F 89% 30.43 in 10.0 mi Calm Calm - N/A   Overcast